RH
7 9 11 10 11 20 35 37 28 31 37 37 40 48 54 52 56 68 76 78 71 66 70 70 68 67 62 64 69 73 67 57 53 52 52 50 47 47 46 45 48 49 50 54 58 59 62 67 71 75 79 81 84 86 87 87 85 83 85 89 91 90 86 87 87 82 81 81 80 80 78 74 74 74 72 73 74 73 74 70 63 62 65 69 71 68
7 9 11 9 9 9 17 30 33 32 32 29 28 34 46 51 58 74 80 78 73 64 66 72 69 65 61 60 65 72 71 60 53 51 49 50 49 48 47 46 47 49 52 55 56 59 62 65 70 74 77 80 82 86 85 84 84 82 82 86 89 84 78 78 79 77 77 77 77 78 75 72 71 71 71 72 72 72 74 72 68 68 70 73 74 72
8 9 8 6 9 10 11 22 28 26 23 22 27 28 33 49 64 77 82 79 73 64 65 72 68 59 57 61 64 67 69 64 57 54 51 50 51 50 49 49 50 50 53 54 52 57 60 63 69 72 76 77 79 82 82 82 83 82 82 84 84 78 73 72 69 68 70 69 69 72 72 70 69 70 70 68 68 69 75 77 73 72 74 76 77 75
8 6 7 6 7 9 10 15 18 18 15 17 26 25 28 52 58 61 79 82 73 69 70 72 67 59 60 64 67 66 68 72 71 67 62 57 53 50 47 48 51 52 54 54 51 52 57 62 67 70 74 76 76 78 78 79 81 81 80 76 74 73 70 67 62 63 67 65 66 69 68 67 69 70 68 66 66 67 74 81 79 76 74 75 80 79
8 6 8 8 8 9 8 12 13 11 11 13 21 20 26 55 63 64 79 80 75 75 72 70 61 56 60 62 63 67 72 76 76 73 69 64 61 56 49 48 51 51 53 54 50 52 58 61 64 69 72 74 75 75 74 75 76 77 77 71 67 70 69 65 63 63 66 68 69 69 70 71 72 73 71 70 70 70 74 79 80 79 74 73 80 80
8 8 8 8 9 9 8 11 10 9 10 11 18 19 23 51 72 79 82 74 70 70 72 73 57 45 53 59 60 67 74 74 72 74 68 64 68 66 56 51 51 52 53 53 50 54 60 61 62 68 72 71 72 72 71 71 71 73 76 72 67 68 69 68 68 66 67 70 69 71 75 76 75 76 75 71 69 69 72 75 78 80 76 73 79 80
10 9 9 9 9 9 9 10 9 11 10 11 22 28 32 52 70 80 78 64 58 63 74 75 58 46 46 53 66 74 76 74 72 73 69 65 69 68 59 52 51 52 52 52 51 53 57 59 61 66 69 68 68 70 71 70 69 72 74 71 67 67 67 67 68 68 68 70 70 71 74 73 72 72 69 62 61 65 69 73 77 79 77 73 77 81
11 9 10 10 9 9 9 8 10 11 7 13 33 42 46 57 66 72 67 55 60 70 74 70 61 55 46 51 75 83 76 74 72 70 70 70 68 65 62 56 51 51 50 51 52 52 54 57 60 63 65 66 65 67 71 69 69 73 71 66 66 67 65 66 66 67 68 69 69 70 71 71 68 68 67 60 57 60 62 67 74 79 81 75 75 80
11 9 9 10 10 9 7 10 11 12 19 35 50 52 52 57 61 61 53 53 65 64 60 68 66 54 44 48 69 79 73 68 68 66 67 70 68 66 66 60 52 51 50 49 49 51 53 56 59 60 63 64 63 65 70 69 69 73 69 63 65 67 65 65 66 66 68 68 67 67 68 68 63 64 68 66 62 59 57 64 71 73 79 80 76 78
11 11 9 7 9 8 8 11 9 13 33 51 54 51 53 54 52 50 45 49 58 48 47 67 69 51 36 38 56 69 68 60 57 57 59 64 67 67 67 62 56 52 52 50 48 49 52 55 57 59 62 63 63 65 68 68 69 71 71 66 64 66 66 66 66 66 66 66 65 64 64 64 61 60 63 65 66 63 61 68 72 69 74 81 80 79
12 17 16 11 9 7 12 20 19 25 41 48 46 47 49 49 44 44 45 46 50 48 48 61 70 59 36 31 47 58 58 56 51 51 54 58 63 64 64 63 58 54 54 52 49 49 52 55 56 58 61 62 63 65 67 68 68 69 72 69 65 66 66 66 66 65 64 64 63 62 62 62 59 58 61 65 68 67 66 70 75 74 75 78 80 81
13 16 17 15 11 9 19 33 33 34 40 41 42 41 42 48 48 46 48 47 47 47 50 61 72 64 40 33 42 47 51 55 54 54 54 55 58 60 62 62 59 55 54 54 52 50 51 54 57 58 59 62 64 65 66 67 67 68 71 71 68 67 67 66 65 64 63 62 61 61 61 61 58 58 62 65 67 68 68 73 76 74 74 76 77 80
11 12 13 13 13 13 20 34 38 33 32 37 39 35 37 48 51 48 49 50 46 45 52 65 72 62 44 37 38 40 46 51 56 58 57 56 57 57 59 60 60 57 53 53 54 52 51 53 55 57 59 62 65 66 65 65 65 68 70 71 69 67 67 66 63 62 62 60 60 59 59 60 59 59 61 62 65 67 69 73 75 72 72 75 75 78
11 12 12 9 11 13 12 22 32 30 30 34 32 27 30 38 40 44 52 49 41 45 57 68 68 52 39 41 43 42 46 51 57 60 61 63 63 60 57 55 57 59 54 52 53 53 52 53 54 56 59 63 64 64 64 64 65 68 70 71 70 66 65 64 61 59 60 60 59 57 57 58 59 61 62 62 65 68 66 67 71 72 73 74 73 76
13 14 13 9 10 11 8 13 18 19 25 29 23 18 22 26 24 27 38 36 34 48 64 67 58 42 35 44 50 47 49 53 58 63 66 67 68 67 63 57 56 59 57 53 52 52 53 53 54 55 58 62 63 62 62 63 66 68 70 71 69 66 63 62 61 59 59 60 59 57 56 57 59 61 63 63 64 65 64 65 67 67 67 69 70 71
16 14 12 11 13 12 9 12 15 13 18 22 17 14 16 18 20 27 33 34 37 44 54 58 49 39 39 44 49 49 51 56 59 62 65 64 67 70 68 64 59 58 59 57 53 53 53 54 55 55 57 60 61 62 62 63 67 69 70 71 68 65 63 61 60 59 59 60 59 58 58 58 58 60 62 63 62 63 63 64 64 63 62 63 65 65
16 14 13 13 16 16 12 15 19 15 15 19 15 14 19 20 24 34 38 39 41 35 39 52 46 39 40 39 45 50 50 55 58 57 62 66 67 68 68 67 65 62 62 60 57 55 54 55 55 54 57 59 61 63 63 64 67 68 70 71 69 68 66 63 61 60 62 62 61 60 59 60 59 59 62 64 63 64 63 60 60 62 63 62 62 63
14 13 12 14 17 18 17 18 21 19 17 17 16 18 25 24 24 32 35 39 40 31 34 45 43 41 41 38 47 56 51 52 55 55 60 65 64 63 65 69 71 68 65 64 61 58 56 55 55 58 63 65 64 64 64 65 68 69 69 69 69 70 69 66 64 64 65 65 65 65 62 61 61 61 64 65 65 65 63 60 60 62 64 64 63 63
14 13 12 14 16 16 16 16 18 22 20 17 19 22 24 25 27 32 34 34 34 34 37 41 42 45 41 37 46 54 52 50 54 57 57 58 61 63 62 66 72 71 68 67 64 61 58 55 58 66 68 65 65 65 64 64 66 68 69 69 69 68 67 66 65 67 68 66 68 68 65 63 62 63 64 63 63 64 64 65 66 66 66 65 63 61
15 16 13 13 14 14 14 15 16 21 22 20 20 22 24 29 33 34 33 29 27 37 41 37 38 37 34 37 42 48 53 53 54 59 60 59 62 64 63 66 73 76 74 71 67 63 59 57 62 70 68 64 63 65 64 63 62 63 65 68 70 68 67 66 65 67 67 66 68 68 66 64 61 60 62 61 62 65 67 68 69 70 69 66 64 61
17 18 16 13 13 14 15 16 16 19 23 22 20 23 27 32 34 33 38 37 30 36 42 39 35 28 29 44 47 46 53 56 57 61 63 64 63 65 69 70 74 78 77 75 72 67 63 62 65 70 71 68 65 65 65 63 61 59 61 67 69 68 68 66 65 67 67 66 67 67 65 65 63 61 63 65 67 69 71 71 70 70 70 68 63 60
14 17 18 15 14 16 16 16 18 20 22 21 19 22 25 30 31 28 38 48 42 38 40 41 35 25 32 53 56 51 53 56 62 64 62 65 68 71 76 76 78 81 79 77 75 71 69 69 69 72 73 70 68 67 66 63 61 60 62 65 66 66 67 65 64 68 67 65 64 64 63 66 66 65 66 69 71 72 71 72 72 69 69 69 65 62
23 24 22 19 18 19 18 21 23 21 24 23 21 24 24 25 27 21 28 45 50 47 43 42 37 27 37 58 62 60 63 63 67 67 62 65 71 76 81 82 82 82 80 79 77 75 75 74 74 74 73 71 69 68 66 63 62 62 64 67 67 67 67 66 67 69 67 63 62 62 64 67 68 68 67 68 70 70 68 68 71 71 70 70 68 68
30 30 28 25 24 23 19 23 26 23 25 24 24 30 28 23 25 25 29 39 46 47 44 42 37 26 36 62 69 68 70 67 66 67 65 66 71 79 85 86 84 81 79 79 79 80 79 78 79 77 75 75 74 73 71 67 65 65 67 69 69 68 66 65 69 70 67 65 65 65 67 69 68 68 69 68 67 67 66 65 68 70 69 69 68 69
23 30 32 26 25 26 22 23 24 23 23 22 29 38 34 31 34 34 39 41 38 44 43 36 30 24 34 57 65 65 67 62 60 65 68 72 76 80 82 82 83 82 78 77 80 81 79 78 81 81 80 80 78 79 78 73 70 68 69 70 69 68 66 65 69 70 68 69 70 70 71 70 69 69 70 69 67 66 66 63 65 68 68 67 68 68
27 39 37 30 21 20 25 26 22 23 23 21 31 40 36 35 36 35 40 37 33 47 50 34 25 25 32 45 51 56 61 58 56 60 68 76 81 81 80 80 83 82 81 81 82 81 80 80 81 82 83 82 81 83 83 80 77 72 71 71 71 71 69 68 71 71 70 72 73 73 72 70 69 69 70 71 69 67 67 65 65 66 66 66 67 68
39 41 43 47 31 17 29 37 31 28 24 17 25 34 34 35 35 35 38 33 34 48 47 38 40 34 29 37 45 50 55 56 56 58 65 75 80 81 83 84 82 79 81 83 82 81 81 82 82 82 83 84 83 84 85 84 82 80 78 74 71 72 72 71 73 72 71 74 75 74 73 70 69 70 70 72 70 66 67 68 66 66 65 65 68 68
37 27 34 46 35 24 32 36 31 28 22 16 21 30 35 38 35 31 31 34 41 41 32 43 59 44 27 32 38 42 49 53 55 58 63 75 82 84 87 86 82 81 84 85 84 84 84 82 82 83 84 85 85 86 86 83 81 80 80 77 73 74 74 73 74 73 72 76 78 77 75 71 71 74 73 71 70 67 68 70 69 68 67 67 68 67
31 21 27 30 24 27 29 26 26 24 19 17 18 21 30 39 36 30 33 39 40 31 27 48 63 45 29 30 34 42 50 53 59 65 71 81 87 88 88 87 84 85 87 87 87 88 87 85 84 85 85 85 86 86 87 86 84 81 78 77 75 73 75 77 78 77 75 77 79 77 74 72 72 75 75 72 72 70 68 70 72 72 72 71 69 67
26 23 29 24 18 23 25 23 23 20 18 18 17 16 23 30 30 29 34 39 39 37 40 54 61 48 34 33 45 61 67 68 76 83 84 88 90 88 89 88 87 87 85 84 87 88 87 86 86 87 87 87 88 87 86 86 88 87 84 82 79 75 75 77 80 81 79 78 78 74 72 72 72 72 74 74 74 73 70 71 74 76 76 75 72 70
24 29 35 27 19 20 22 24 21 18 18 17 17 21 23 25 27 30 36 39 40 45 52 56 55 48 43 53 71 84 83 78 81 86 88 90 90 89 91 89 87 86 81 79 82 84 85 85 85 86 88 89 91 90 89 88 87 88 90 89 87 83 79 77 79 81 81 80 77 74 73 75 75 74 74 74 74 74 74 74 76 78 78 77 76 75
25 34 35 25 20 20 22 24 22 20 20 18 18 24 26 26 27 30 37 39 37 43 53 52 42 36 48 70 83 85 81 78 79 84 87 90 89 89 90 89 87 85 81 80 82 82 83 83 82 83 86 88 89 89 90 92 91 89 89 89 90 89 86 83 82 82 82 82 80 77 77 78 80 80 78 76 75 75 74 75 78 79 80 79 78 78
32 31 26 22 21 21 24 28 24 20 21 20 19 22 25 30 35 33 35 41 40 40 43 39 33 40 60 75 79 79 80 81 84 85 85 87 88 88 89 88 86 83 80 82 84 83 82 82 81 82 84 86 88 88 90 93 94 93 92 91 90 91 90 89 87 85 84 83 83 82 81 81 83 84 83 80 78 76 76 79 81 81 80 80 80 80
37 28 27 29 23 21 30 31 25 23 24 23 29 35 31 30 34 33 34 41 42 44 49 45 45 62 74 72 71 73 76 80 84 83 85 88 86 84 85 84 80 78 78 78 80 80 78 78 80 82 85 87 89 92 94 94 94 95 96 95 94 93 92 91 89 88 86 85 85 85 83 83 84 85 85 83 81 82 83 82 82 82 83 83 83 83
36 31 36 36 26 26 33 30 25 26 26 24 37 51 45 34 32 34 42 50 48 53 62 56 57 76 83 77 75 76 77 83 85 83 87 90 87 84 85 84 80 78 77 75 75 76 76 78 80 82 85 90 92 95 97 97 97 99 99 98 98 95 93 92 91 90 89 88 87 86 85 85 84 85 86 86 87 88 88 85 85 87 87 86 86 85
34 33 35 34 30 30 29 27 28 29 27 29 42 53 50 44 42 38 41 49 52 55 56 52 63 84 90 86 85 83 84 89 86 84 88 90 90 88 85 83 82 80 79 75 74 77 78 80 83 87 90 94 94 94 95 96 98 100 100 99 99 97 94 94 93 91 90 91 90 89 88 87 86 87 88 90 90 91 91 91 90 89 87 87 87 86
31 33 31 29 33 33 27 26 30 29 27 31 42 49 46 43 43 38 30 35 50 58 56 58 75 90 90 88 87 86 89 85 71 73 86 90 90 89 86 83 82 81 80 78 77 79 80 82 89 94 95 94 91 91 93 94 95 97 98 98 99 98 95 95 95 93 90 90 92 92 91 89 89 89 89 90 90 90 90 89 86 85 84 86 88 87
30 36 35 29 32 36 30 25 28 27 24 28 37 43 42 38 38 35 26 27 43 57 59 64 79 90 90 90 89 86 81 65 45 52 78 90 89 88 86 83 81 79 79 79 79 79 81 87 94 94 92 90 88 89 91 92 92 93 94 95 96 97 96 94 95 96 93 91 92 93 92 91 90 90 90 89 88 88 88 86 84 84 83 83 86 87
30 38 39 31 31 35 29 24 28 29 26 32 38 37 38 39 36 32 28 25 36 53 60 63 75 86 86 88 91 81 62 44 32 42 68 85 86 83 81 78 77 78 78 79 80 81 85 91 92 88 88 89 88 89 92 94 95 96 96 95 94 94 95 94 93 94 93 90 91 93 93 91 90 90 90 90 88 88 89 88 87 88 87 84 86 88
30 34 33 27 29 33 28 23 28 29 30 42 46 38 37 40 34 30 28 25 32 51 60 60 70 82 84 87 87 69 47 40 40 49 68 81 80 78 77 75 75 76 75 76 80 84 87 89 86 84 86 89 89 91 95 97 99 99 98 96 94 93 93 94 96 96 94 89 88 92 94 93 92 92 92 92 90 88 88 87 88 91 91 89 89 90
35 36 33 28 28 32 29 25 27 28 31 41 45 41 41 39 31 27 28 30 41 57 63 60 65 76 84 85 75 57 50 56 60 66 77 79 74 75 76 76 76 76 74 76 82 86 86 85 85 86 88 90 92 93 96 98 100 100 100 99 96 93 92 94 98 100 99 96 92 91 95 96 94 93 93 93 93 91 90 89 88 89 91 93 92 89
37 39 37 32 31 33 31 28 26 27 32 41 46 48 46 37 28 29 37 46 54 61 66 64 63 70 78 78 68 60 63 71 73 76 79 75 72 74 72 72 74 74 76 81 85 86 84 83 85 89 90 91 93 93 96 100 100 100 100 100 99 97 95 97 99 98 100 100 97 92 93 95 95 94 94 94 95 97 97 95 92 90 91 92 89 86
36 35 33 33 35 35 33 32 28 25 33 43 46 46 41 33 32 39 47 53 56 60 66 66 63 68 70 67 68 72 75 78 78 78 76 73 73 73 71 73 77 78 80 83 82 83 85 85 87 90 91 92 92 94 98 101 100 100 100 100 100 100 99 99 98 97 99 101 99 94 91 93 95 94 94 95 97 99 100 98 97 96 93 92 90 89
40 34 31 34 36 34 29 29 31 33 40 43 40 39 38 37 44 48 45 47 55 62 64 62 64 71 68 62 70 79 82 83 81 78 77 77 75 74 74 77 80 82 82 81 80 83 86 87 88 90 92 92 92 95 99 100 100 101 100 100 100 100 100 100 98 98 99 100 99 96 92 93 96 95 95 96 98 100 100 100 99 98 96 97 97 97
41 40 40 38 39 38 32 31 37 43 47 43 40 47 49 45 49 51 43 42 54 62 62 59 62 71 70 66 72 81 84 84 82 79 80 80 76 75 77 79 82 84 83 81 83 85 86 87 89 91 92 92 92 95 99 100 100 100 100 100 101 99 100 100 98 97 98 97 97 96 93 94 97 96 96 98 99 100 100 99 100 99 99 100 99 99
46 52 50 43 42 42 40 43 48 50 49 43 40 50 58 52 48 48 44 43 51 59 62 60 61 70 74 71 75 82 84 83 83 82 82 81 79 78 79 82 84 83 81 81 84 85 84 85 89 92 92 91 92 94 97 99 100 101 100 100 100 100 100 101 99 99 98 96 96 96 96 98 99 99 99 100 100 100 100 100 100 99 99 100 99 99
52 51 46 41 38 35 36 45 53 55 57 54 44 45 57 60 55 52 50 51 56 61 64 63 65 73 77 74 76 82 85 84 86 86 85 84 84 82 81 81 82 82 83 84 84 84 84 86 90 92 91 91 92 93 95 98 100 100 99 100 100 100 100 100 100 99 99 99 100 99 99 100 100 100 100 100 99 100 100 100 100 100 99 99 98 98
51 48 46 46 42 36 38 48 57 59 62 66 59 50 52 57 59 60 60 62 64 67 69 70 73 76 75 75 79 83 85 87 86 86 87 88 86 84 83 82 82 82 83 83 83 85 87 88 91 91 89 90 93 93 93 95 96 96 98 100 100 100 100 100 100 99 97 97 98 99 99 100 100 100 100 99 100 100 100 100 100 98 98 98 95 92
45 43 46 50 47 40 40 48 55 52 50 58 64 62 62 63 64 67 70 68 68 72 75 77 79 77 74 77 81 83 87 89 87 86 87 86 84 85 83 81 82 81 79 80 84 87 88 88 90 90 89 91 93 93 92 93 93 95 98 100 99 99 100 100 100 100 99 97 96 98 99 99 100 99 95 92 92 92 95 99 98 92 89 89 86 80
44 42 44 45 43 39 37 44 53 50 44 50 58 62 66 68 66 69 73 70 69 74 78 81 83 83 80 81 81 83 87 89 88 87 85 82 83 85 84 81 79 77 77 80 84 85 86 88 89 90 90 90 90 90 91 93 94 95 98 99 99 98 98 98 97 97 98 98 97 96 97 98 98 96 92 87 83 79 79 85 88 83 77 75 74 71
47 48 44 39 40 40 37 45 58 57 52 55 58 60 65 67 65 67 71 71 72 76 77 79 84 85 85 86 84 82 84 86 87 86 82 82 86 85 82 80 76 72 75 81 82 81 84 87 90 91 91 89 88 86 87 91 93 94 95 98 98 97 97 98 97 95 95 95 95 94 96 96 95 93 92 89 87 84 82 83 83 79 73 68 67 69
Wind_Speed
1 3 5 4 3 5 6 7 4 2 2 2 1 0 0 1 0 2 3 5 7 4 3 4 3 4 5 3 3 2 4 9 9 9 8 8 8 8 10 10 10 10 7 7 9 11 11 11 11 11 11 12 12 12 13 13 13 13 12 11 11 12 14 14 13 14 14 13 12 11 10 10 9 10 8 6 6 5 5 6 7 7 5 4 3 3
1 6 5 2 4 4 6 7 5 3 1 1 1 1 2 2 1 2 1 4 6 4 3 3 5 7 6 5 3 1 4 8 10 11 11 10 10 9 10 11 10 8 5 6 9 11 11 11 12 12 12 13 14 14 15 15 14 13 12 11 12 13 16 16 15 15 15 14 13 10 10 9 8 9 8 6 5 5 6 7 7 6 5 5 4 4
3 6 4 3 4 3 3 4 6 5 3 1 1 2 2 2 3 3 2 4 5 4 2 2 6 8 7 5 4 4 4 5 7 9 9 9 10 9 10 10 9 8 7 8 9 11 13 13 13 12 12 14 14 14 15 15 14 14 14 13 13 15 17 17 17 16 15 15 14 11 10 10 7 7 8 6 6 6 7 7 7 7 6 6 6 5
4 4 3 4 6 5 3 4 6 4 3 3 3 3 2 3 4 1 2 4 3 0 1 1 4 6 5 4 5 5 4 3 3 5 6 7 9 10 10 9 9 10 9 9 10 11 12 14 14 13 13 14 14 14 15 15 16 15 16 16 16 16 17 18 18 17 15 15 14 12 11 11 8 7 8 8 7 7 7 7 8 7 7 7 7 6
4 1 2 5 6 6 4 4 6 4 3 4 6 7 3 5 4 1 5 7 3 1 1 0 3 4 4 5 5 3 2 4 3 4 6 7 6 6 8 8 9 10 10 10 11 10 11 13 15 14 14 15 15 15 16 17 17 16 17 19 19 18 18 19 18 17 16 14 13 12 11 10 8 7 7 7 7 8 8 8 8 8 8 8 8 8
4 2 3 4 5 6 4 4 7 5 3 3 6 8 5 7 7 7 10 8 3 3 0 2 3 1 1 4 4 2 2 6 5 5 8 8 6 5 7 9 9 10 9 10 11 12 14 15 15 15 15 15 16 16 17 17 18 17 18 20 20 20 19 19 18 18 17 15 14 14 11 9 7 6 6 7 8 8 9 8 8 8 8 8 9 9
2 1 3 4 5 6 5 4 5 5 4 2 1 4 5 9 10 11 11 5 1 1 2 1 3 1 1 1 0 1 3 6 5 7 9 8 7 7 8 9 9 10 10 9 11 13 15 16 16 16 17 17 17 17 17 17 17 17 19 21 22 21 20 20 19 19 18 16 16 15 12 10 8 7 9 11 10 10 10 9 8 8 8 9 9 9
2 2 3 4 4 5 4 3 5 7 4 1 4 1 8 11 11 12 9 3 2 2 3 1 1 3 2 2 1 2 3 6 8 9 10 8 9 9 9 10 10 11 11 11 11 12 14 16 17 18 18 19 17 16 17 17 18 19 21 23 23 22 22 21 21 20 19 18 18 16 13 11 11 10 10 12 12 12 12 11 9 8 8 9 9 9
3 3 4 4 2 3 3 1 5 8 2 2 2 4 8 8 9 9 6 3 3 2 2 2 2 3 3 1 2 1 3 6 9 11 11 10 11 10 10 11 11 12 12 12 12 12 15 16 18 18 18 19 18 16 18 19 18 19 22 24 23 23 22 22 21 21 20 20 19 17 15 13 13 11 10 11 11 12 13 12 12 10 9 9 9 9
2 2 2 3 1 2 1 3 2 4 4 3 7 10 9 7 7 5 2 4 2 2 0 3 4 3 2 0 1 1 2 4 6 8 9 10 10 10 10 11 11 10 11 13 13 13 16 17 18 18 18 18 18 17 18 18 18 19 21 24 24 23 23 22 22 22 21 21 19 18 17 15 14 13 12 12 11 12 13 12 12 12 11 10 9 9
1 1 1 2 1 1 5 6 3 4 9 10 10 11 9 7 5 3 2 2 1 2 1 1 3 3 2 0 1 1 0 1 3 4 5 7 9 10 10 11 11 10 10 11 12 13 15 17 17 17 17 19 18 17 17 18 18 18 20 24 25 24 24 23 23 22 22 21 20 19 18 17 15 14 14 13 12 12 13 13 12 12 12 11 9 8
0 2 2 1 2 3 6 8 6 7 8 5 5 7 6 4 2 2 2 0 3 2 2 2 3 4 3 1 2 2 1 2 4 5 6 6 7 9 9 10 11 11 10 11 11 12 13 14 15 17 17 18 18 17 18 18 19 19 20 23 26 26 25 25 24 24 23 22 21 20 19 18 16 16 16 15 14 14 14 13 12 13 13 12 10 9
1 2 0 1 3 3 5 8 5 3 2 2 4 5 3 2 1 2 1 1 3 1 2 1 3 3 4 3 2 3 1 2 3 5 7 8 7 7 8 9 10 9 10 11 10 11 11 12 15 17 17 18 19 19 19 19 19 19 21 24 27 27 27 26 25 25 24 24 22 20 19 19 18 18 18 17 16 15 15 14 13 13 13 12 11 11
2 2 1 1 3 2 3 6 4 3 4 6 5 3 2 2 2 2 1 1 3 0 2 1 3 2 3 2 1 2 2 3 4 4 5 7 8 8 6 7 9 10 11 10 10 11 10 12 15 18 18 18 19 20 20 20 20 19 20 24 27 28 28 28 27 27 26 25 23 20 19 19 19 19 19 18 16 15 16 15 13 12 11 11 11 11
2 2 1 1 2 1 3 3 3 5 5 4 1 1 2 3 2 2 2 2 1 2 3 2 2 2 2 1 1 1 2 2 2 3 4 4 5 6 6 6 7 9 10 9 10 11 11 13 16 17 17 18 19 20 20 20 20 19 20 25 29 29 29 29 29 29 28 27 25 22 20 20 20 20 19 17 16 15 16 15 13 13 12 11 11 11
1 1 0 1 0 1 2 1 2 4 5 2 0 1 2 1 1 0 0 0 1 1 2 2 2 2 1 1 1 1 1 2 2 3 2 3 2 2 3 4 5 7 9 9 9 10 12 14 15 16 17 18 18 19 20 20 20 20 20 25 30 30 30 31 31 31 29 28 26 24 23 22 22 21 19 17 16 16 16 15 14 14 13 12 12 12
1 1 1 1 1 2 1 3 2 1 3 3 2 3 1 1 2 2 2 1 1 2 1 1 3 2 1 2 2 2 3 3 2 2 2 4 3 2 1 2 3 5 6 8 9 9 11 12 15 16 14 13 12 13 15 17 19 23 24 25 28 29 29 30 31 31 30 29 28 27 25 24 23 22 19 17 16 15 16 16 15 14 13 13 13 13
1 0 2 1 2 4 2 3 6 4 0 2 3 4 4 1 0 1 1 1 1 3 1 1 4 3 2 2 1 3 4 3 2 2 2 2 3 3 3 2 2 3 5 6 7 8 9 11 14 13 11 12 14 13 14 14 16 21 24 25 26 27 28 29 30 30 30 30 28 27 27 26 24 22 19 17 16 15 15 15 15 15 14 14 13 13
1 2 1 1 2 3 2 2 6 6 4 2 3 5 2 1 1 1 1 1 1 2 1 1 3 3 4 3 1 4 6 4 2 1 1 2 3 3 3 3 3 2 3 4 6 6 7 10 13 14 15 18 19 17 17 17 16 18 20 21 23 25 27 28 26 25 28 29 27 26 26 26 25 23 20 18 18 17 16 15 14 14 15 14 14 15
1 2 1 2 1 0 1 2 3 4 5 4 5 4 1 1 1 1 0 0 1 1 1 1 2 2 3 2 2 5 7 5 3 1 1 2 2 2 3 3 4 3 2 2 4 5 7 9 11 14 17 20 22 21 18 18 19 19 19 18 18 20 22 23 22 23 27 28 25 24 25 25 26 25 23 21 20 18 16 15 14 13 14 14 15 15
1 2 1 2 1 2 2 1 2 2 4 3 4 4 1 2 1 1 1 1 1 1 1 2 2 1 1 1 3 5 6 5 2 1 1 2 2 2 3 4 4 4 3 1 1 2 5 7 10 12 14 18 23 23 18 17 19 19 19 19 20 19 18 20 20 21 25 26 25 26 26 24 25 26 23 21 20 18 17 16 16 15 14 15 16 15
2 1 1 1 1 2 0 2 2 2 0 1 3 3 3 4 3 2 1 0 1 1 1 1 3 2 2 1 3 2 3 3 1 1 1 2 3 3 3 4 5 4 3 2 1 1 2 4 8 11 13 16 20 20 19 18 18 17 19 21 22 21 20 21 20 21 25 27 28 28 27 23 23 24 24 21 19 19 18 17 17 18 17 16 15 15
1 1 2 1 0 1 3 4 1 2 1 2 1 1 3 3 2 3 2 2 2 0 0 0 2 1 2 1 2 1 1 1 1 2 1 2 2 2 3 4 4 4 3 3 2 1 1 3 5 9 12 15 18 20 21 20 17 17 18 19 21 23 24 23 21 23 28 30 30 30 27 23 22 22 23 21 20 20 19 17 17 19 19 16 14 14
1 1 2 1 0 0 1 2 2 1 2 2 2 2 2 1 1 1 1 1 3 3 2 2 2 1 2 1 1 1 0 2 2 2 1 1 1 2 3 3 4 4 4 3 3 1 1 3 4 7 9 12 14 16 18 18 17 16 17 19 22 26 29 27 24 24 28 29 29 27 25 24 23 21 21 21 21 21 20 19 18 18 19 18 15 14
2 0 2 2 2 2 2 2 2 2 2 1 2 2 2 4 5 4 3 1 2 2 2 2 3 0 2 1 1 2 2 3 3 2 1 1 1 2 2 3 4 5 5 4 3 2 1 2 4 6 7 9 10 11 12 14 15 14 16 18 21 25 30 30 27 26 27 27 25 23 23 24 23 21 21 22 22 21 21 21 19 19 19 19 18 16
2 1 2 3 5 4 4 3 2 2 2 1 2 3 3 5 6 4 3 2 3 2 2 3 2 0 1 2 4 4 4 4 3 3 1 0 1 2 3 3 4 4 5 6 5 3 2 2 3 5 6 8 8 9 10 11 12 12 14 16 18 21 26 28 26 25 27 27 24 22 23 23 22 22 23 24 25 23 21 20 20 19 19 19 19 18
2 1 1 2 4 4 3 2 0 1 3 3 3 5 4 4 4 4 2 2 2 3 4 5 2 2 2 3 4 5 5 5 4 2 2 1 1 1 2 2 3 3 4 5 5 4 3 2 3 4 5 7 8 10 10 11 12 12 12 14 15 16 20 24 25 26 27 25 24 23 23 23 23 23 23 24 27 27 24 21 20 19 19 19 19 19
3 2 3 3 2 1 1 2 1 1 3 4 5 7 6 5 6 5 4 2 4 4 4 4 3 3 5 2 3 4 4 4 3 2 2 2 2 1 1 2 2 2 2 3 4 4 4 3 3 3 4 5 7 9 10 13 15 16 15 16 16 14 15 18 21 26 28 24 22 24 26 25 23 23 24 26 29 29 27 23 21 19 19 18 18 19
3 2 2 3 1 0 1 1 0 1 1 2 4 6 6 7 8 8 5 4 7 5 3 2 6 6 5 2 0 1 1 1 0 2 2 2 3 2 1 1 1 2 2 3 4 5 5 5 5 5 5 5 6 7 8 10 13 16 18 20 20 18 16 15 16 22 26 25 24 27 29 29 27 26 27 29 29 29 29 27 24 20 19 18 18 18
1 2 2 3 2 2 1 1 1 1 2 2 2 3 5 7 9 8 4 5 7 4 2 2 6 7 4 1 2 1 2 2 2 3 3 3 3 2 2 2 2 3 3 3 4 5 6 6 6 7 8 7 7 7 7 7 8 11 15 17 19 20 19 16 16 18 22 25 28 31 31 31 31 30 30 29 29 30 30 29 25 21 20 19 19 18
1 2 3 2 2 3 1 1 1 1 2 3 2 1 3 5 6 6 4 4 5 4 1 3 4 5 2 2 3 2 2 3 4 3 2 2 2 2 2 3 3 3 3 4 4 5 6 7 7 8 9 9 8 8 8 8 8 9 10 12 14 17 19 18 17 19 21 24 28 31 31 30 30 30 30 30 30 29 29 29 26 23 22 21 20 19
0 2 2 1 3 3 1 2 3 2 1 3 4 4 6 5 3 4 4 5 7 6 6 5 5 4 1 3 4 4 3 3 4 3 2 2 3 3 3 3 3 4 4 4 5 5 6 7 8 9 10 10 9 9 9 9 9 9 9 10 11 12 15 17 18 19 21 23 26 28 30 29 28 28 29 29 30 30 29 29 27 25 24 23 21 20
2 4 3 3 4 4 2 1 3 4 3 4 4 4 7 5 2 3 3 5 7 6 5 5 4 1 4 4 5 5 5 4 3 3 3 2 4 4 3 3 3 4 5 5 5 6 7 8 9 10 11 11 10 10 10 9 9 10 10 10 10 10 12 15 17 18 20 21 23 24 26 27 26 26 27 29 29 30 29 27 26 26 25 23 21 19
3 5 3 2 3 3 3 1 3 5 6 4 1 0 3 4 4 4 4 4 6 5 2 3 0 4 4 5 5 6 6 4 3 3 2 3 4 3 3 3 3 4 5 6 6 7 8 9 10 10 11 11 11 11 11 10 10 10 10 10 9 9 11 13 16 18 19 21 21 23 25 26 26 26 27 28 29 28 27 27 27 26 24 21 19 19
5 4 3 1 1 2 3 2 5 7 5 0 2 1 2 3 4 4 4 4 6 6 3 3 1 4 4 4 3 4 4 3 3 3 3 4 4 2 2 3 3 4 5 6 7 8 9 10 11 11 11 11 12 12 11 11 11 10 11 11 10 10 11 12 15 17 19 20 21 23 24 25 26 27 26 26 26 25 25 25 25 23 21 19 19 20
6 4 3 2 1 2 3 5 6 3 1 1 1 1 3 3 4 4 4 5 8 9 7 4 2 5 5 4 4 3 3 4 3 4 5 5 5 4 3 3 3 4 5 7 8 9 10 11 12 12 11 11 12 12 12 12 11 10 10 10 10 12 13 13 15 16 18 19 19 21 23 25 26 26 25 24 24 23 23 23 23 22 22 21 20 21
5 5 3 2 2 1 4 6 3 3 2 3 2 3 4 4 5 4 3 3 6 7 7 4 5 7 7 5 5 5 4 4 3 3 5 6 6 5 5 4 4 5 6 8 9 10 11 12 11 11 12 12 13 13 13 12 12 11 11 11 10 11 12 14 15 16 17 18 19 19 22 24 25 26 25 25 26 26 25 27 27 26 25 23 21 20
3 3 4 4 3 1 2 4 3 3 5 5 4 4 3 2 3 3 2 1 4 6 7 6 7 9 8 7 7 6 5 4 3 1 4 7 7 6 6 5 5 6 7 9 10 11 12 11 11 12 13 14 14 14 14 14 14 13 12 11 11 11 12 13 14 15 17 18 19 19 21 23 25 26 26 28 29 29 28 29 28 26 25 24 21 20
3 2 2 4 3 3 3 4 4 5 4 3 3 5 4 3 4 4 2 4 4 8 9 7 8 9 9 8 8 6 4 3 3 1 4 7 7 6 5 5 5 6 7 9 10 11 11 11 12 13 13 13 14 15 15 14 13 12 12 12 12 12 13 14 15 17 19 21 20 19 20 22 24 25 26 29 30 29 26 26 24 23 23 24 22 20
3 2 2 4 4 4 5 4 3 3 2 1 2 3 4 4 5 5 4 3 4 9 10 9 8 9 8 7 6 5 4 3 1 1 4 6 6 6 5 5 5 6 7 9 9 10 11 11 12 13 13 13 15 16 14 13 12 12 13 13 14 14 14 16 16 17 19 22 23 21 19 20 22 24 25 27 29 29 27 26 25 24 23 23 23 21
2 1 2 4 4 5 6 4 2 2 2 2 2 4 4 4 5 6 4 1 4 8 8 8 8 8 8 7 5 3 2 1 1 3 5 5 5 5 5 5 5 5 7 8 8 9 11 11 12 12 12 13 14 14 13 13 13 14 14 14 15 16 16 16 17 17 18 21 22 22 20 19 21 22 22 23 25 27 27 26 26 25 24 23 23 23
1 1 1 2 3 3 4 3 2 1 2 3 4 3 3 4 5 5 2 1 4 8 8 7 7 7 7 7 5 2 2 3 3 4 5 5 4 5 4 4 5 5 6 8 8 9 10 11 11 12 12 12 13 13 13 12 13 14 14 15 16 18 18 18 19 18 19 19 22 24 23 21 23 23 21 20 21 21 23 24 25 26 26 26 26 28
1 2 2 3 3 2 2 4 4 2 3 8 9 4 3 4 2 3 3 2 2 7 8 6 6 6 7 6 4 3 4 4 4 4 5 5 4 4 4 4 4 5 6 7 8 9 9 10 10 10 11 12 13 12 12 11 12 13 13 14 17 19 20 20 19 18 18 19 20 24 25 24 24 23 21 21 20 20 21 22 21 24 26 27 28 28
1 1 1 2 2 2 3 5 2 1 3 10 9 4 5 3 0 2 5 4 2 5 6 5 4 5 6 6 5 5 5 5 5 6 6 5 5 5 4 4 3 4 5 6 7 8 8 8 8 9 10 11 12 12 10 10 11 12 13 14 17 18 19 18 16 14 15 16 18 21 24 24 24 24 23 22 22 22 24 24 23 25 26 25 24 22
1 1 1 1 2 2 2 2 1 3 2 6 3 1 1 2 1 2 4 5 4 4 4 4 5 6 5 5 6 6 5 5 6 7 6 6 5 4 3 2 2 3 4 4 5 6 6 6 6 8 9 11 11 11 9 9 10 11 13 14 15 15 15 15 14 12 12 14 15 18 21 21 21 22 23 24 25 27 28 28 28 27 25 23 22 23
1 1 1 1 1 2 3 2 2 2 2 5 4 2 1 0 2 3 3 5 5 5 4 4 5 6 6 6 6 5 5 6 7 7 7 6 5 4 2 1 1 2 3 3 5 5 5 5 6 7 8 10 11 10 9 9 9 10 11 12 12 11 11 9 8 7 6 7 9 12 15 17 17 16 19 24 27 28 31 33 32 30 27 25 25 27
1 2 1 2 1 1 1 0 2 3 2 3 5 3 2 2 2 2 1 3 4 5 5 4 4 7 8 7 7 6 6 7 7 7 6 6 5 4 2 1 1 2 3 3 4 4 4 5 6 6 8 9 10 10 10 9 9 10 10 10 9 9 8 7 7 8 8 7 4 3 6 9 10 11 12 14 14 17 22 28 30 29 28 28 29 29
1 1 1 2 1 1 3 3 4 4 4 3 4 4 2 2 3 2 0 2 5 6 5 4 5 7 7 7 6 6 6 7 8 7 6 5 5 4 2 1 2 2 3 3 4 4 5 5 5 5 7 8 8 9 10 11 11 11 11 11 9 8 8 12 14 15 17 18 17 16 16 16 18 22 24 23 21 19 16 18 25 30 27 25 29 31
1 2 1 2 3 3 4 4 3 4 4 4 4 4 2 2 4 4 2 4 7 7 7 5 4 4 6 6 6 6 6 7 8 7 6 6 4 4 3 3 3 3 4 4 4 5 6 5 4 6 7 7 7 9 11 13 13 12 11 11 11 10 13 16 17 19 21 24 25 26 27 27 27 31 34 35 34 31 24 18 24 34 33 27 28 33
1 2 2 3 5 4 2 2 1 2 3 3 4 4 3 3 5 5 5 6 7 8 8 7 5 3 3 4 6 7 7 7 8 8 6 5 4 4 5 4 4 5 5 5 5 6 6 5 5 6 6 7 8 9 11 14 14 13 12 12 13 15 17 19 21 23 24 26 28 30 31 31 31 33 36 38 39 40 34 26 26 35 39 35 31 31
2 3 2 3 4 3 3 2 1 2 2 2 1 2 4 5 6 7 6 6 7 7 7 8 6 4 3 3 4 6 6 7 8 9 6 4 5 6 6 5 6 6 6 5 6 6 6 6 7 7 7 7 8 10 12 14 15 16 15 14 14 16 18 19 22 25 26 28 30 32 32 33 32 32 36 38 38 40 39 33 31 34 36 34 31 28
Wind_Direction
335 210 226 235 162 155 194 218 218 114 65 40 71 90 270 263 97 118 123 160 182 191 193 204 235 232 232 225 199 162 182 201 205 203 205 204 204 207 211 215 213 216 214 183 179 184 181 174 169 166 167 172 174 174 175 176 177 178 181 182 180 179 178 176 176 177 178 177 178 182 188 192 192 195 193 195 202 200 198 190 182 188 184 174 184 184
233 225 222 164 137 168 197 203 194 173 160 307 304 265 229 230 116 73 105 160 186 215 194 193 241 237 234 233 214 198 200 204 208 210 211 208 208 211 212 215 212 208 195 171 179 184 181 176 170 168 172 176 176 176 177 178 179 179 182 187 184 183 185 183 182 182 182 183 182 183 191 193 192 198 201 202 210 212 209 202 196 199 202 204 215 215
222 239 232 166 153 138 134 172 188 203 219 230 254 241 242 174 124 81 82 148 183 231 208 176 240 242 236 236 227 221 220 216 214 217 220 211 208 212 212 211 206 199 191 185 186 184 182 178 174 173 177 183 180 177 179 180 179 179 182 190 192 188 188 188 189 187 188 189 188 189 194 197 197 205 212 217 226 223 214 211 210 211 214 218 222 224
204 246 255 184 162 148 147 171 176 187 216 206 204 244 249 160 173 125 125 159 156 355 29 149 246 259 244 231 228 228 236 255 229 215 224 220 215 215 212 208 203 200 194 189 188 186 185 180 178 181 180 182 182 178 181 182 181 182 185 192 195 194 192 192 193 193 194 195 194 197 204 207 212 220 227 235 237 227 214 213 217 218 220 219 220 223
220 205 113 137 150 174 174 162 179 195 229 211 207 235 233 170 188 65 132 154 140 107 32 333 248 255 247 237 224 208 237 253 234 211 215 219 221 217 210 206 205 206 197 188 187 183 188 189 184 185 182 182 183 184 187 186 184 186 188 192 195 197 198 197 197 197 198 198 198 202 209 214 220 227 235 237 229 219 214 216 218 220 222 219 218 222
246 186 147 153 162 185 181 182 198 208 262 243 208 230 226 165 145 119 141 151 155 189 89 323 265 203 174 240 228 161 214 229 218 219 222 214 204 201 210 209 204 208 204 194 189 180 190 199 190 185 186 186 187 190 191 191 189 188 188 192 196 199 202 203 201 200 200 201 202 204 205 205 209 218 229 228 218 212 212 214 215 217 220 218 220 224
259 120 155 181 172 177 198 221 194 192 242 298 324 234 183 146 134 136 156 166 154 145 69 320 274 318 98 169 247 345 253 234 227 227 228 219 205 197 207 211 202 204 205 202 196 187 192 196 190 188 190 192 194 191 190 192 193 191 191 194 196 200 203 205 205 202 202 205 207 208 206 206 209 216 232 236 228 218 216 217 217 218 221 220 220 225
170 142 140 162 154 171 209 235 185 182 210 341 7 175 148 141 143 148 161 159 99 109 90 136 259 304 286 107 74 313 267 238 236 233 227 220 215 206 203 210 206 202 202 202 200 193 194 194 192 192 193 196 198 191 187 192 194 194 197 198 198 200 203 204 206 205 205 208 210 212 211 215 222 225 236 243 238 231 227 227 225 224 226 226 223 225
166 185 161 149 123 189 230 304 174 166 155 351 36 116 129 132 139 145 149 109 112 177 144 144 193 267 278 128 130 237 251 239 235 232 228 220 214 208 204 209 209 204 202 203 202 197 196 197 197 196 194 197 197 191 189 192 194 196 200 202 201 202 204 205 207 207 209 211 213 216 217 222 231 235 241 246 245 240 235 231 231 231 230 231 230 230
216 236 161 147 143 215 130 41 187 157 98 126 120 104 104 106 107 114 118 108 128 249 235 147 202 258 292 186 138 174 233 253 250 238 233 227 219 212 207 209 208 204 202 205 205 200 197 198 199 198 195 196 196 194 193 193 193 195 199 203 204 204 205 207 208 209 210 213 215 219 223 227 234 240 243 245 245 244 238 232 232 234 232 231 234 236
302 321 163 179 187 159 96 69 35 102 116 140 127 105 103 100 101 86 53 81 198 234 86 104 226 259 300 237 172 215 177 291 295 289 262 240 231 223 215 210 206 202 200 203 206 202 199 198 199 198 196 194 195 194 192 192 193 194 197 203 206 207 208 208 208 210 211 213 217 222 228 232 234 237 240 238 235 236 234 228 228 231 231 231 233 235
140 163 189 201 124 116 104 78 56 92 115 143 135 122 115 92 104 117 82 208 237 204 84 3 243 231 259 239 166 207 245 274 274 295 296 275 249 234 224 217 211 206 200 199 204 202 197 197 196 197 197 194 193 192 192 193 194 193 196 202 206 208 209 208 209 211 212 214 218 225 232 234 232 233 235 232 229 230 227 223 224 227 229 232 233 233
187 164 321 35 137 157 126 98 82 97 122 186 156 148 137 94 150 173 158 224 240 224 60 320 233 219 257 261 218 229 283 305 281 288 293 291 279 257 237 225 216 211 204 198 200 200 197 197 196 197 196 191 191 193 193 194 194 194 196 202 207 209 210 209 208 211 214 217 221 226 231 230 228 232 235 234 232 230 227 223 221 224 226 229 231 233
177 125 26 133 152 209 176 136 146 176 193 189 168 168 164 137 183 190 159 253 262 239 76 190 229 245 264 262 246 262 324 331 310 308 298 289 281 272 260 239 223 214 211 202 197 199 198 198 198 197 194 191 192 195 194 194 195 194 196 201 207 210 211 209 209 212 216 220 223 225 227 225 225 230 233 234 233 231 231 229 224 223 223 226 230 233
200 150 138 199 146 179 213 182 151 149 167 187 124 303 198 165 220 232 197 230 249 107 99 156 216 250 259 76 56 311 342 339 332 342 324 299 280 272 264 248 232 218 214 209 202 200 198 198 199 198 194 192 194 196 195 195 194 193 195 201 207 211 212 211 211 213 216 220 222 223 224 223 224 229 232 235 238 236 236 235 231 233 232 231 235 239
278 245 119 282 311 143 196 170 101 127 143 143 48 244 253 185 160 65 24 15 46 146 151 179 231 268 273 257 260 245 178 83 35 15 352 347 346 290 260 241 234 223 215 212 207 202 198 196 198 201 200 197 196 195 195 194 193 194 197 202 207 211 213 214 214 215 217 219 221 221 221 221 224 228 232 238 244 244 241 240 239 243 244 243 245 249
283 320 38 348 48 44 245 151 100 325 150 135 188 185 73 22 128 116 107 59 350 242 189 170 250 261 251 239 204 192 174 121 64 40 37 14 16 21 341 279 250 238 223 215 209 205 199 193 198 205 203 194 190 196 202 199 196 199 201 203 208 211 213 215 216 217 218 218 219 220 220 222 224 227 231 236 244 246 244 245 246 248 249 250 253 256
220 208 54 28 102 61 339 129 84 28 24 160 181 147 116 90 65 90 146 122 205 251 216 190 272 287 270 261 139 168 202 167 106 65 72 40 32 35 11 341 289 254 239 226 213 208 201 195 197 192 179 174 179 193 209 209 206 206 206 206 207 210 213 217 218 218 219 219 218 218 220 223 225 226 228 232 239 242 243 246 248 248 249 252 257 260
230 224 93 109 148 96 320 186 100 56 21 36 124 125 133 207 162 108 183 162 211 266 232 184 281 284 241 250 178 183 201 190 168 108 77 64 50 30 7 355 335 288 248 229 213 206 202 197 189 176 172 180 187 196 206 208 209 211 212 211 210 212 215 217 217 216 219 220 218 219 221 224 225 226 226 231 237 240 240 242 244 247 251 255 260 262
78 256 168 128 169 150 270 225 168 105 66 68 116 122 2 337 90 108 133 247 253 263 279 235 263 249 221 239 226 193 190 190 185 164 51 43 46 19 1 357 351 341 308 243 213 202 199 194 184 180 181 185 193 204 208 206 208 209 211 211 211 215 217 216 214 215 220 220 218 220 222 224 226 227 227 231 235 235 235 238 241 244 250 255 260 260
136 263 198 123 172 226 185 172 227 156 116 141 165 156 129 96 102 148 110 17 297 201 218 268 276 277 109 184 215 190 180 181 176 170 15 30 40 22 3 357 357 358 353 327 242 217 201 190 183 185 185 187 199 208 208 206 209 208 205 204 207 212 216 217 216 216 220 221 220 222 224 225 226 226 226 228 230 230 231 235 240 244 249 255 259 257
181 220 195 153 161 197 174 21 309 276 69 176 199 181 154 133 148 187 164 149 311 288 201 253 291 311 71 159 229 182 159 164 173 249 317 36 27 12 6 3 3 358 0 7 328 257 215 196 187 188 188 189 200 207 207 208 211 207 205 205 206 209 212 218 218 217 221 222 223 225 226 225 225 225 225 223 224 228 230 233 239 244 249 252 255 253
156 114 126 121 73 264 330 349 304 237 130 94 43 141 151 145 162 206 223 183 152 130 34 221 288 308 95 156 240 173 106 141 204 264 313 41 22 10 8 2 360 356 3 9 352 291 216 210 201 200 199 196 201 206 207 209 209 207 207 206 205 208 211 214 214 218 224 225 226 228 227 225 224 225 224 223 224 228 230 233 237 242 246 246 247 248
154 108 112 97 11 247 321 12 68 120 151 136 73 98 153 152 93 118 138 145 167 174 168 195 241 237 99 104 245 231 242 213 208 237 279 340 14 26 15 356 350 347 351 8 13 4 243 217 210 215 214 209 211 212 209 208 209 209 208 207 209 214 218 218 216 221 226 226 226 227 226 226 226 224 223 223 226 229 231 233 235 239 242 242 242 243
183 207 147 151 168 164 168 168 142 164 206 191 95 109 129 112 107 110 107 123 211 185 175 230 243 209 93 110 223 215 216 232 213 187 241 304 1 10 5 357 350 344 343 355 17 23 330 243 224 222 220 217 222 225 219 216 217 217 214 213 214 218 222 222 220 221 224 224 222 221 222 226 226 225 224 225 227 229 231 233 234 237 240 240 239 239
154 186 162 165 184 192 196 204 211 183 170 134 122 141 135 130 136 134 118 179 224 170 171 229 242 22 116 174 218 214 209 233 215 167 172 34 35 357 348 352 354 354 349 349 356 6 354 284 245 231 225 223 227 230 231 229 229 230 228 224 221 220 223 223 221 221 222 220 218 218 220 223 224 225 226 228 230 231 231 232 234 235 238 237 237 238
110 141 161 173 196 206 203 195 270 163 156 157 163 160 156 149 137 123 133 204 191 148 189 225 245 306 268 192 214 219 211 225 218 163 147 134 103 10 345 344 352 2 353 345 346 348 346 323 282 256 235 227 226 227 230 233 234 236 237 235 233 228 225 223 222 224 226 221 217 219 221 221 222 225 226 229 234 236 233 232 233 235 236 235 235 236
124 165 174 169 202 244 191 134 120 207 172 159 159 159 165 159 147 168 209 188 139 159 227 219 179 238 269 250 228 233 218 227 231 177 147 131 122 103 329 317 337 355 346 340 343 345 349 346 326 303 277 254 241 232 229 230 234 238 240 240 240 238 232 226 221 223 227 224 218 220 223 223 222 223 226 231 236 239 237 234 234 234 235 235 233 236
145 170 168 167 174 161 174 137 107 227 152 144 162 159 161 167 177 201 217 168 169 212 268 156 165 210 255 275 216 263 240 236 213 114 118 108 117 141 240 276 288 310 323 335 344 350 355 354 350 341 327 309 288 269 252 240 236 238 241 241 241 241 237 230 220 219 222 223 223 226 228 228 226 225 230 233 235 238 239 238 236 234 233 234 235 237
179 147 140 172 150 127 174 238 207 209 163 167 195 162 159 180 198 216 219 176 192 238 320 135 190 222 257 23 102 70 47 72 84 100 123 131 148 172 208 250 270 285 297 319 334 343 347 350 353 351 345 340 330 316 298 281 262 248 244 243 241 240 238 234 228 222 220 222 227 231 232 231 230 230 231 234 235 237 238 238 236 232 231 233 235 236
251 151 136 165 148 135 120 87 142 220 188 182 212 182 160 185 207 222 219 184 202 236 200 165 216 240 268 66 112 119 109 128 133 137 157 173 184 190 210 251 272 282 295 312 324 329 332 338 345 346 344 342 337 332 323 310 297 277 262 252 243 239 238 235 231 226 223 224 229 233 233 232 232 231 232 232 233 235 236 237 235 232 232 232 233 234
164 133 121 157 181 172 132 119 149 138 132 206 237 225 197 192 198 208 200 190 202 199 170 179 231 244 144 110 131 147 151 152 153 165 182 196 212 215 217 241 271 290 302 312 315 318 324 330 335 337 336 333 329 327 327 322 313 301 285 270 258 248 242 236 232 230 227 227 229 230 231 230 229 230 231 231 232 233 234 235 234 233 233 233 231 232
136 144 141 175 193 167 121 125 153 146 181 227 239 221 204 195 189 207 212 213 213 194 170 200 230 134 117 149 162 159 163 171 181 191 192 196 209 215 220 235 267 286 296 306 311 314 322 325 328 331 330 328 326 324 325 324 318 312 303 288 273 261 251 242 237 234 232 230 228 228 228 228 227 227 229 231 232 232 231 231 231 233 232 231 230 228
144 149 142 181 201 161 119 95 165 184 207 214 141 185 210 190 187 211 232 228 211 197 213 263 229 99 139 184 174 161 167 172 185 194 199 213 211 207 217 234 262 283 290 299 306 310 317 322 324 325 324 325 326 326 324 322 320 318 315 306 290 270 256 249 245 242 238 235 230 228 228 227 226 226 228 230 230 229 227 226 229 231 230 228 225 224
148 144 125 154 196 136 112 148 191 202 212 164 49 30 216 198 197 216 246 234 206 196 223 262 192 137 158 170 147 151 159 160 182 204 210 218 216 211 223 235 259 280 289 301 308 312 318 322 322 322 323 327 329 328 323 318 318 318 314 311 303 286 268 254 247 245 244 241 235 231 229 227 226 226 226 226 226 225 223 224 225 226 226 224 223 225
149 148 126 119 132 125 154 183 200 226 284 11 37 111 147 165 181 203 232 218 199 199 209 213 152 136 150 151 149 161 162 167 197 215 216 216 211 215 232 243 257 276 292 303 308 314 318 320 322 326 331 332 327 324 321 318 317 314 310 307 301 291 282 269 257 248 245 244 241 235 230 227 225 225 223 221 220 219 219 220 220 221 225 227 228 229
148 150 138 150 186 174 181 192 220 319 282 202 189 173 170 167 169 190 237 211 182 193 201 181 142 148 159 160 166 177 178 189 206 199 199 209 212 218 232 242 253 275 294 300 304 312 317 322 330 333 331 326 322 321 320 318 314 310 304 298 294 289 282 274 267 258 251 247 244 240 235 230 226 223 221 219 218 217 218 219 220 220 222 224 226 228
140 158 171 185 195 166 174 196 215 241 227 210 193 181 188 184 154 162 241 228 171 183 192 177 159 163 168 169 177 185 191 211 236 176 173 197 210 217 228 240 257 278 292 298 304 312 321 333 338 331 325 322 322 323 321 317 314 309 301 292 287 282 276 271 266 263 257 251 246 242 238 233 229 226 222 219 219 217 217 220 221 219 218 217 218 219
96 73 156 175 170 161 187 204 207 213 222 221 189 169 170 176 146 144 225 241 181 174 184 181 169 171 175 174 175 180 195 225 252 178 160 187 204 214 229 251 265 277 292 304 309 314 325 334 330 325 327 327 325 324 322 317 313 308 301 295 289 280 271 265 260 257 256 252 248 244 239 235 233 229 222 218 218 216 215 215 216 215 215 212 208 204
106 88 164 182 173 171 191 208 222 225 237 273 212 171 160 164 157 166 220 240 167 164 176 179 174 174 172 167 168 179 199 222 258 127 153 176 198 213 233 259 266 276 301 316 321 324 327 328 327 330 334 329 325 324 322 318 314 309 303 302 296 286 274 266 261 259 257 255 250 245 241 237 233 229 223 219 217 215 214 212 212 212 208 199 194 191
122 117 193 203 189 180 194 210 235 239 232 216 197 176 155 158 180 197 216 210 135 153 167 174 173 167 159 161 174 193 187 139 92 122 147 168 196 215 232 256 265 281 310 321 326 330 328 327 333 336 331 325 325 326 325 323 318 311 308 307 300 294 289 282 274 264 258 255 250 243 238 233 230 228 224 220 218 215 212 211 211 209 200 189 184 181
154 138 156 204 189 173 190 210 226 251 215 153 138 147 171 182 195 198 201 42 132 151 160 175 172 161 160 167 180 181 123 121 133 147 164 187 206 220 238 262 274 293 317 324 330 336 334 333 337 332 326 328 332 332 330 327 320 314 312 307 300 298 299 297 288 275 263 255 248 242 236 229 227 227 224 220 216 210 207 209 209 204 196 186 178 173
192 197 194 185 172 144 175 197 203 230 183 151 134 138 211 218 206 161 122 58 133 150 157 174 168 159 171 177 172 150 131 138 165 180 194 210 219 229 247 270 290 305 321 328 334 341 338 335 335 331 330 336 338 337 337 334 326 322 317 308 303 304 302 297 293 285 271 257 246 242 238 231 225 223 220 215 210 204 200 198 196 192 185 176 169 164
194 208 228 195 181 188 195 193 192 348 181 167 151 159 202 197 144 159 147 130 144 154 156 168 162 159 179 179 158 152 155 167 191 202 208 217 225 234 251 271 292 309 325 332 336 340 336 333 336 335 338 344 345 344 346 343 335 330 324 317 313 313 306 295 290 288 274 258 246 240 237 232 225 220 216 210 201 195 192 189 184 181 175 168 162 154
184 178 293 256 209 220 232 235 321 354 218 200 198 355 204 159 154 201 156 132 145 167 165 166 159 159 176 169 146 151 174 190 201 209 211 218 226 234 251 276 301 322 334 340 341 342 339 340 345 342 344 352 355 354 354 354 349 342 335 329 327 326 318 297 281 279 271 257 246 237 232 228 224 219 213 204 197 192 188 181 176 172 167 161 153 142
124 152 238 255 234 245 249 249 286 330 285 240 244 279 346 287 195 188 154 133 145 161 159 157 156 156 164 165 153 162 187 194 202 211 213 219 228 231 238 262 316 353 354 354 356 353 353 0 3 358 356 359 2 3 4 4 4 358 348 343 343 343 336 315 288 284 282 263 247 235 224 217 213 207 197 193 194 193 185 177 171 166 160 152 144 137
133 168 228 295 309 261 242 260 334 330 318 268 248 239 259 268 215 184 147 128 141 153 152 147 146 151 159 168 170 172 180 186 198 209 212 218 224 217 212 214 70 35 22 20 17 16 23 26 21 12 6 5 7 12 16 16 16 16 11 5 1 359 6 29 54 65 67 71 80 133 174 176 163 144 139 150 159 163 166 166 161 153 147 142 136 131
120 171 252 292 277 260 281 309 322 302 280 258 245 242 237 195 172 168 82 99 116 128 132 129 140 152 160 171 170 161 164 183 197 203 205 214 218 205 188 144 90 64 54 57 48 45 53 48 33 23 19 18 20 26 33 35 35 35 35 29 21 25 49 66 74 78 80 82 86 88 91 97 103 103 101 99 97 97 110 131 133 127 123 127 129 127
106 179 208 259 255 265 275 273 284 289 267 229 213 224 242 195 164 153 130 120 123 126 124 115 122 150 160 162 158 151 160 182 195 199 201 207 202 179 154 115 93 91 88 81 69 69 73 58 30 28 32 31 31 36 41 43 44 45 47 45 48 59 70 75 78 79 81 84 88 90 89 88 89 94 97 96 93 87 78 84 110 115 112 111 116 119
157 207 187 215 237 252 288 282 243 256 255 229 204 197 197 189 169 151 142 142 141 139 134 119 101 108 136 146 153 157 162 178 191 196 199 200 180 151 139 126 117 117 107 94 91 89 77 49 28 32 34 33 40 47 47 47 50 55 57 56 64 73 78 80 81 82 84 87 88 90 90 89 88 91 93 94 94 93 88 82 92 103 106 106 108 113
207 242 231 242 254 270 313 332 287 253 272 295 267 178 167 177 173 157 152 153 147 141 139 132 124 128 139 147 164 168 162 169 184 191 191 177 146 135 136 135 132 129 117 104 103 97 73 52 45 40 29 29 43 54 56 53 54 61 67 69 72 75 78 81 83 84 86 90 92 92 91 90 90 93 94 94 95 97 97 94 90 93 99 104 108 112